User: anonymous   Login
Location: Arrington
(35.8681°N, 86.7092°W)
Time: 13:37:00
(UTC+00:00)
Language:

Atlas Centaur 2 - Orbit

View from above orbital plane
View from above orbital plane
View from above satellite
View from above satellite

Ground track
Ground track

The orbit data is extracted from the following two-line orbital elements,

1   694U 63047A   20024.56684892 +.00000408 +00000-0 +41714-4 0  9998
2   694 030.3580 328.5470 0585818 008.7983 352.2394 14.02550954816748
Epoch (UTC): 24 January 2020 13:36:15
Eccentricity: 0.0585818
inclination: 30.3580°
perigee height: 459 km
apogee height: 1310 km
right ascension of ascending node: 328.5470°
argument of perigee: 8.7983°
revolutions per day: 14.02550954
mean anomaly at epoch: 352.2394°
orbit number at epoch: 81674

The dashed part of the orbit path shows where the satellite is in the earth's shadow,  

DLR